Location: Carnières
(50.1682°N, 3.3474°E)
Time: 05:26:59
(UTC+00:00)

MOZ.5/SAFIR/RUBIN 5/SL-8 - Pass Details

Date: 13 August 2024
Orbit: 671 x 698 km, 98.3° (Epoch: 08 September)

Event Time Altitude Azimuth Distance (km) Brightness Sun altitude
Exits shadow 02:18:30 25° 257° (WSW) 1,375 4.9 -17.7°
Maximum altitude 02:18:58 26° 267° (W) 1,362 4.9 -17.6°
Drops below altitude 10° 02:22:55 10° 323° (NW) 2,167 6.5 -17.3°
Sets 02:25:32 0° 337° (NNW) 3,092 7.5 -17.0°
